Regional Weather Roundup
Issued by NWS

Home | Current Version | Previous Version | Text Only | Print | Product List | Glossary On
Versions: 1 2 3 4 5 6 7 8 9 10 11 12 13 14 15 16 17 18 19 20 21 22 23 24 25 26 27 28 29 30 31 32 33 34 35 36 37 38 39 40 41 42 43 44 45 46 47 48 49 50
857
ASUS44 KJAN 221910
RWRMS

MISSISSIPPI HOURLY WEATHER ROUNDUP
NATIONAL WEATHER SERVICE JACKSON MS
200 PM CDT FRI MAY 22 2015

NOTE: "FAIR: INDICATES FEW OR NO CLOUDS BELOW 12,000 FEET WITH NO
SIGNIFICANT WEATHER AND/OR OBSTRUCTIONS TO VISIBILITY.

MSZ001>002-007>008-010>013-018>021-025>028-034>036-222000-
NORTHWEST MISSISSIPPI

CITY           SKY/WX    TMP DP  RH WIND       PRES   REMARKS
CLARKSDALE     FAIR      68  54  60 CALM      30.26F
CLEVELAND      FAIR      71  52  52 NE7       30.24F
GREENWOOD      SUNNY     74  50  42 E8        30.22F
GREENVILLE     SUNNY     71  51  49 VRB6      30.23F
OLIVE BRANCH   MOSUNNY   70  46  43 NE7       30.27F
OXFORD         FAIR      70  46  43 NE5       30.26F
TUNICA         CLEAR     68  50  52 E8        30.27F
$$

MSZ003>006-009-014>017-022>024-029>033-037>039-222000-
NORTHEAST MISSISSIPPI

CITY           SKY/WX    TMP DP  RH WIND       PRES   REMARKS
COLUMBUS AFB   SUNNY     74  51  44 N8        30.23F
CORINTH        FAIR      70  48  46 VRB6      30.26F
GOLDN TRIANGLE SUNNY     70  50  49 N7        30.23F
STARKVILLE     FAIR      70  50  49 NE7       30.24R
TUPELO         SUNNY     72  48  42 VRB6      30.25F
$$

MSZ040-058-222000-
CENTRAL MISSISSIPPI

CITY           SKY/WX    TMP DP  RH WIND       PRES   REMARKS
JACKSON INTL   PTSUNNY   74  52  46 N5        30.21F
JACKSON HAWKNS PTSUNNY   73  53  49 NE7       30.22S
MERIDIAN KEY   SUNNY     75  50  41 VRB3      30.21S
MERIDIAN NAS   MOSUNNY   74  50  42 NE5       30.22F
RAYMOND        FAIR      73  68  83 VRB6      30.20F
VICKSBURG      PTSUNNY   74  53  48 N5        30.21F
$$

MSZ059>079-222000-
SOUTH MISSISSIPPI

CITY           SKY/WX    TMP DP  RH WIND       PRES   REMARKS
BROOKHAVEN     FAIR     N/A N/A N/A N7        30.21F
HATTIESBURG    SUNNY     76  56  49 E5        30.19F
MCCOMB         SUNNY     77  62  59 VRB3      30.18F
NATCHEZ        SUNNY     73  61  64 NE3       30.19F
PINE BELT      SUNNY     75  46  35 NE3       30.21F
$$

MSZ080>082-222000-
COASTAL MISSISSIPPI

CITY           SKY/WX    TMP DP  RH WIND       PRES   REMARKS
BAY ST LOUIS   SUNNY     79  59  50 MISG      30.15F
BILOXI         MOSUNNY   79  63  58 E6        30.15F
PASCAGOULA     MOSUNNY   79  61  53 SE6       30.16F
GULFPORT       SUNNY     80  61  52 CALM      30.15F
$$



USA.gov is the U.S. government's official web portal to all federal, state and local government web resources and services.